Wind_Speed
36 36 39 42 47 48 49 50 51 49 50 51 50 45 43 43 43 44 44 45 46 46 47 47 47 47 48 48 48 47 46 45 45 44 44 45 45 44 44 43 43 42 42 41
35 37 38 39 43 48 48 48 50 50 50 50 51 48 44 42 43 43 44 44 45 45 45 45 46 46 46 46 46 46 45 45 45 44 43 43 42 42 42 42 42 41 41 41
35 36 37 38 40 43 45 43 47 50 50 50 49 48 46 44 43 45 45 45 44 45 45 45 45 45 45 45 44 44 45 44 43 43 42 41 41 41 40 40 40 41 41 41
33 35 36 34 35 38 41 44 46 50 51 52 49 48 47 46 45 45 45 46 45 45 45 45 45 45 45 44 44 43 43 43 42 42 41 41 40 40 40 40 40 40 40 40
32 34 34 33 33 35 39 42 44 49 51 51 51 50 49 48 47 47 46 46 46 46 46 46 45 45 44 44 43 42 42 41 40 40 40 40 39 39 39 39 39 39 39 39
29 32 33 34 34 33 36 39 42 46 50 51 51 52 51 50 50 49 49 48 47 47 47 46 46 45 44 43 42 41 41 40 39 39 39 38 38 38 38 38 38 38 38 38
27 29 31 32 34 34 36 38 40 43 48 50 52 51 50 51 51 51 50 49 48 48 47 47 46 45 44 42 41 40 40 39 39 39 38 38 37 37 37 37 37 37 37 37
27 29 29 31 33 35 36 38 40 42 45 49 50 51 51 51 52 51 50 49 49 48 47 47 45 44 44 43 42 40 39 39 39 39 38 38 37 37 36 36 36 36 36 36
27 28 28 30 32 34 36 38 40 42 43 47 48 50 51 51 52 52 51 50 50 49 48 47 47 45 44 43 42 41 40 39 38 38 38 37 36 36 35 35 35 35 35 36
27 28 29 30 31 34 36 38 39 41 42 44 46 48 49 50 50 52 52 51 51 50 49 47 46 46 45 44 42 41 40 40 39 38 37 37 36 36 35 35 35 35 35 35
28 27 29 31 33 34 36 37 39 40 42 43 44 46 47 48 48 49 50 50 50 50 49 47 46 46 45 44 43 42 41 40 39 38 37 37 36 35 35 35 35 35 35 36
27 26 29 30 32 34 36 37 39 40 41 42 43 44 46 47 46 46 47 48 48 49 48 47 46 46 45 44 43 42 41 40 39 38 38 37 36 36 36 35 35 34 35 35
28 28 29 30 32 34 35 36 38 39 40 40 40 42 44 45 45 44 45 46 47 47 47 47 46 45 44 44 43 41 40 40 39 38 37 36 36 35 34 34 34 34 34 34
29 30 31 30 31 32 33 34 36 37 38 39 40 40 41 43 45 44 44 44 45 46 45 45 44 43 42 42 41 40 39 39 39 38 37 36 35 34 34 34 34 34 34 35
29 31 32 31 31 32 32 34 35 36 36 36 37 38 39 41 44 44 43 43 43 44 44 43 42 41 41 40 40 40 39 38 38 37 37 36 35 35 35 34 34 34 34 34
26 29 31 31 30 30 31 32 34 35 35 35 36 37 37 39 40 42 42 42 42 42 43 42 42 41 40 39 39 38 38 37 37 36 36 35 35 35 34 34 34 34 34 34
25 27 28 29 30 30 31 31 33 35 35 34 34 35 37 38 39 39 40 40 40 41 41 41 41 40 39 38 37 36 36 36 36 35 35 35 34 34 34 34 34 34 34 33
22 24 27 29 30 30 31 32 33 34 34 34 34 35 36 38 39 39 38 38 39 39 39 39 39 39 38 38 36 35 35 35 35 34 34 34 34 34 34 34 33 33 33 33
21 22 24 28 29 29 31 32 33 33 34 34 33 33 34 36 38 38 39 38 37 37 37 37 37 38 37 36 35 34 33 33 33 33 33 33 33 33 32 32 33 33 33 33
21 22 23 26 29 29 29 30 31 32 33 34 33 32 33 35 36 37 37 37 37 37 36 36 35 35 35 35 34 33 32 32 32 31 32 31 31 32 32 32 32 33 33 34
19 20 22 25 27 29 28 29 31 32 32 33 33 33 33 33 34 35 35 35 35 35 35 34 33 34 34 33 32 31 31 30 30 29 29 30 31 32 32 32 32 33 33 33
16 18 20 23 25 27 27 28 29 30 31 32 33 34 33 32 32 33 33 33 33 33 33 33 32 31 31 31 30 30 29 30 29 28 28 29 30 30 31 31 31 31 31 32
13 15 18 22 24 25 26 27 28 29 30 31 32 33 32 31 31 31 31 32 32 32 32 31 31 30 30 29 28 28 28 28 27 27 27 28 28 28 28 29 30 31 31 31
10 13 15 19 23 24 26 27 27 27 29 30 31 33 33 31 31 31 30 31 31 32 31 30 29 28 28 28 27 27 26 26 26 26 26 27 28 28 28 28 29 29 29 30
10 11 13 15 19 22 25 26 27 27 27 27 29 30 31 32 31 31 30 31 31 30 29 29 28 27 26 26 26 26 26 25 25 26 26 27 27 27 28 28 28 29 30 31
9 11 13 14 17 20 23 24 25 26 26 27 28 29 30 30 30 30 30 30 30 29 28 27 26 26 25 25 24 24 24 24 24 24 24 25 25 26 27 27 28 29 30 31
10 12 14 15 17 19 21 22 25 26 26 27 28 28 28 28 28 28 28 29 29 28 28 27 26 25 24 24 23 22 22 22 23 23 23 24 24 25 26 27 28 29 30 31
Wind_Direction
223 222 222 222 221 220 221 222 221 221 221 223 224 223 222 222 222 223 223 223 224 225 227 229 231 233 234 236 237 239 241 243 245 247 249 251 253 254 256 259 261 263 266 267
227 226 225 223 222 221 222 222 221 220 220 219 222 221 220 219 219 219 220 221 221 222 224 226 228 230 233 235 237 239 241 243 245 247 249 251 253 254 256 258 260 262 265 267
230 228 229 227 223 221 221 221 220 220 219 220 222 223 222 220 219 219 219 220 221 221 222 224 226 228 231 234 237 239 241 243 245 247 249 251 252 254 256 259 261 263 265 266
232 229 230 226 224 223 221 220 220 218 216 217 219 221 220 220 219 217 217 219 220 221 222 224 226 228 230 233 236 238 241 243 245 247 249 251 252 254 256 258 260 262 264 266
231 231 228 224 220 218 219 219 219 218 218 217 218 218 218 217 218 217 216 217 219 221 222 223 225 228 231 233 236 238 240 243 245 247 249 251 252 255 257 259 261 263 265 267
231 230 229 225 221 219 218 218 218 218 219 218 218 219 217 218 219 219 219 219 219 220 222 224 226 229 231 234 236 238 240 242 244 246 249 251 253 255 258 259 261 263 265 266
232 231 229 224 223 222 221 218 217 217 218 219 219 220 218 218 218 219 219 221 221 221 222 224 226 228 231 233 235 238 240 242 244 247 249 251 253 255 257 260 262 263 265 266
231 229 227 223 224 225 225 220 220 220 220 220 220 219 219 219 219 219 219 220 221 221 223 225 226 228 230 232 234 237 240 242 244 247 249 251 254 256 258 260 262 264 265 267
231 227 225 225 226 226 226 224 223 222 221 220 220 220 220 220 220 221 220 221 221 222 224 226 227 229 230 232 235 237 240 242 244 247 250 252 255 257 259 261 262 264 266 268
230 224 224 225 225 225 225 224 223 222 222 221 221 221 222 222 222 223 223 223 223 224 225 226 227 229 231 233 235 237 240 243 245 247 250 253 255 257 259 261 263 264 267 269
231 227 227 228 228 227 226 225 223 221 221 222 221 221 222 222 223 223 222 223 224 225 226 226 227 229 231 233 235 238 240 243 245 247 250 253 255 257 259 261 263 265 267 269
231 228 229 227 228 229 228 225 223 221 220 221 222 222 223 222 222 222 221 222 223 224 225 226 227 229 231 233 235 237 239 242 245 247 249 252 254 257 259 261 264 266 268 270
235 232 231 228 228 229 228 225 222 220 220 220 221 221 222 222 221 221 220 221 221 223 224 225 227 228 230 232 234 236 238 241 243 246 248 251 254 256 258 261 264 266 269 271
238 235 231 229 228 227 226 224 221 220 219 220 221 222 222 221 220 220 220 219 221 222 222 223 225 227 229 231 232 234 237 239 242 245 247 250 253 255 258 262 265 267 269 271
237 235 232 227 226 227 225 221 218 217 217 218 220 221 221 220 219 219 218 219 219 220 221 222 223 225 227 228 230 233 235 238 241 244 246 249 252 256 259 262 264 267 269 271
237 233 231 226 223 222 222 221 218 216 216 217 218 217 216 216 216 217 216 217 217 219 220 221 222 223 225 228 230 233 235 237 240 242 245 248 252 255 258 261 263 266 269 270
235 232 229 224 221 221 221 221 218 216 216 216 216 214 213 213 213 214 215 216 216 217 218 219 220 221 224 227 229 232 234 237 239 241 245 248 252 254 257 260 263 266 268 269
241 237 230 225 222 220 219 220 219 218 215 213 213 212 212 212 212 212 213 215 216 217 218 219 220 222 224 227 229 232 234 236 239 242 245 248 251 254 256 259 262 264 267 269
243 238 231 224 219 217 215 216 218 217 215 212 211 210 210 209 210 211 212 214 215 216 217 218 220 222 224 226 228 231 234 238 241 243 245 248 251 254 256 258 261 264 267 269
245 240 230 222 218 215 214 213 213 213 211 208 207 208 208 207 208 209 211 213 214 215 217 219 221 222 223 225 228 232 235 238 241 243 245 247 250 253 256 259 262 266 268 271
245 237 230 221 216 214 212 210 208 208 209 208 207 207 207 207 206 208 210 211 213 213 215 218 220 221 223 225 229 232 235 238 240 243 247 249 251 253 257 261 264 268 270 272
240 231 224 217 212 209 207 206 206 204 203 204 206 206 205 204 205 206 207 208 209 210 212 214 216 217 220 223 227 231 235 238 241 245 248 251 252 255 258 261 265 268 271 275
239 227 216 210 205 203 203 204 202 199 200 201 202 202 202 202 202 203 204 206 207 207 208 210 213 215 218 222 227 232 236 239 241 245 247 251 254 256 259 264 267 270 273 276
223 211 204 203 202 201 200 199 196 196 197 197 198 199 199 199 200 201 202 204 207 207 208 211 214 216 219 223 228 232 236 239 242 245 249 254 256 259 262 266 268 270 274 278
203 199 196 195 195 193 192 192 193 194 195 195 196 198 198 198 199 201 202 204 205 207 209 212 215 217 221 226 229 232 236 240 244 248 252 255 259 262 265 268 271 274 277 280
190 189 185 184 183 184 186 187 188 189 192 193 193 194 196 198 199 201 203 205 206 207 209 211 214 218 222 225 230 235 238 241 246 249 253 257 261 264 268 271 274 277 279 282
189 187 183 182 182 183 185 186 186 187 189 190 191 193 195 197 199 200 203 205 205 207 209 212 216 219 222 226 230 233 238 243 247 252 256 260 264 268 270 273 276 278 281 284
Height
5462 5467 5472 5479 5486 5492 5498 5507 5517 5529 5538 5547 5554 5562 5570 5576 5583 5591 5598 5604 5611 5618 5625 5632 5638 5645 5651 5656 5662 5667 5672 5676 5680 5684 5687 5689 5692 5694 5696 5697 5698 5699 5700 5700
5455 5459 5464 5470 5477 5483 5491 5499 5509 5518 5527 5536 5543 5551 5559 5567 5574 5581 5588 5595 5602 5609 5615 5622 5628 5634 5640 5646 5652 5657 5662 5666 5670 5673 5676 5679 5681 5683 5685 5687 5688 5689 5690 5690
5448 5452 5456 5463 5469 5476 5484 5491 5500 5508 5519 5526 5533 5541 5549 5557 5564 5571 5578 5586 5593 5599 5606 5612 5619 5625 5631 5636 5641 5647 5651 5656 5659 5663 5666 5669 5671 5673 5676 5677 5678 5679 5680 5680
5441 5446 5451 5459 5463 5468 5475 5482 5490 5498 5506 5514 5523 5531 5538 5546 5553 5561 5569 5576 5583 5590 5596 5602 5609 5615 5621 5626 5632 5637 5641 5645 5649 5653 5656 5659 5661 5663 5665 5667 5668 5669 5670 5670
5434 5438 5443 5451 5455 5460 5466 5473 5480 5488 5496 5503 5511 5519 5527 5536 5544 5552 5559 5566 5573 5579 5586 5593 5599 5605 5611 5617 5622 5627 5631 5636 5639 5643 5646 5649 5651 5654 5655 5657 5658 5659 5660 5660
5428 5432 5437 5444 5448 5452 5458 5464 5470 5476 5484 5492 5499 5507 5518 5526 5533 5541 5548 5556 5563 5570 5577 5584 5590 5596 5602 5608 5613 5618 5622 5626 5629 5633 5636 5639 5641 5643 5645 5647 5648 5649 5650 5650
5420 5424 5429 5435 5440 5444 5451 5456 5460 5466 5473 5481 5489 5498 5507 5514 5522 5530 5538 5546 5553 5561 5568 5574 5581 5587 5593 5598 5603 5608 5612 5616 5620 5623 5626 5629 5632 5634 5635 5637 5638 5639 5640 5640
5413 5418 5425 5427 5430 5435 5440 5446 5452 5457 5464 5471 5479 5487 5495 5503 5511 5519 5527 5536 5543 5551 5558 5565 5571 5578 5584 5589 5594 5599 5603 5607 5611 5614 5617 5619 5622 5624 5626 5627 5629 5629 5630 5630
5406 5412 5415 5418 5421 5426 5431 5437 5443 5449 5455 5462 5469 5477 5485 5493 5501 5509 5517 5525 5533 5541 5548 5556 5562 5568 5574 5579 5584 5589 5594 5598 5601 5605 5608 5610 5613 5615 5616 5618 5619 5620 5620 5621
5398 5403 5406 5409 5413 5417 5422 5427 5433 5439 5446 5453 5460 5467 5475 5483 5491 5499 5507 5515 5523 5530 5538 5545 5552 5559 5565 5570 5575 5580 5584 5588 5592 5595 5598 5601 5603 5605 5607 5608 5609 5610 5611 5611
5390 5395 5398 5401 5405 5409 5414 5419 5424 5430 5437 5443 5451 5458 5465 5473 5481 5489 5497 5505 5513 5520 5528 5535 5542 5548 5554 5560 5565 5570 5575 5579 5582 5586 5589 5592 5594 5596 5598 5599 5600 5601 5601 5601
5383 5386 5388 5393 5397 5400 5405 5410 5415 5421 5428 5435 5441 5448 5456 5463 5471 5479 5487 5495 5502 5510 5517 5525 5531 5538 5544 5550 5555 5560 5565 5569 5573 5576 5579 5582 5584 5586 5587 5589 5590 5591 5591 5591
5374 5376 5379 5384 5388 5392 5396 5401 5407 5413 5419 5426 5432 5439 5446 5453 5461 5469 5476 5484 5492 5500 5507 5514 5521 5528 5534 5540 5545 5551 5555 5559 5563 5566 5569 5572 5574 5576 5578 5579 5580 5581 5581 5581
5364 5367 5371 5375 5379 5383 5388 5393 5398 5405 5411 5417 5424 5430 5436 5443 5451 5459 5467 5474 5482 5489 5497 5504 5511 5518 5524 5530 5535 5541 5545 5549 5553 5556 5560 5562 5565 5567 5568 5570 5571 5571 5571 5571
5356 5358 5362 5366 5370 5375 5379 5385 5390 5396 5402 5409 5415 5421 5427 5434 5442 5450 5457 5465 5472 5480 5487 5494 5502 5508 5514 5520 5526 5531 5535 5539 5543 5547 5550 5552 5555 5557 5559 5560 5561 5561 5562 5561
5348 5350 5354 5358 5362 5367 5371 5377 5382 5389 5394 5400 5406 5412 5419 5425 5433 5440 5448 5456 5463 5470 5478 5485 5492 5499 5504 5510 5516 5521 5525 5530 5533 5537 5540 5543 5545 5547 5549 5550 5551 5552 5552 5552
5341 5343 5347 5351 5355 5359 5364 5369 5375 5380 5386 5392 5398 5404 5410 5417 5424 5432 5439 5447 5454 5461 5468 5475 5483 5489 5495 5501 5506 5511 5516 5520 5524 5527 5530 5533 5535 5537 5539 5540 5541 5542 5542 5542
5334 5336 5339 5343 5347 5351 5356 5361 5367 5373 5378 5384 5390 5396 5402 5409 5416 5424 5431 5438 5445 5453 5460 5467 5473 5480 5486 5492 5497 5502 5506 5510 5514 5517 5521 5523 5525 5527 5529 5530 5531 5532 5532 5532
5326 5328 5331 5334 5338 5343 5349 5354 5359 5365 5370 5376 5382 5388 5395 5402 5409 5416 5423 5430 5437 5445 5452 5458 5464 5471 5477 5483 5488 5493 5497 5501 5505 5508 5511 5513 5515 5517 5519 5521 5521 5522 5522 5522
5319 5321 5323 5326 5331 5336 5341 5346 5351 5357 5363 5369 5375 5381 5388 5395 5401 5408 5415 5423 5430 5437 5444 5450 5456 5462 5468 5474 5479 5484 5488 5492 5496 5499 5501 5504 5506 5508 5509 5511 5511 5512 5512 5512
5312 5313 5316 5319 5324 5329 5334 5339 5345 5351 5356 5362 5369 5376 5382 5388 5395 5401 5408 5416 5423 5430 5436 5443 5449 5454 5460 5465 5471 5476 5480 5484 5487 5490 5492 5495 5497 5498 5500 5501 5502 5502 5502 5502
5305 5307 5309 5313 5318 5323 5328 5334 5339 5344 5350 5357 5364 5370 5377 5383 5390 5396 5403 5410 5416 5423 5429 5436 5441 5447 5453 5458 5463 5468 5472 5475 5478 5481 5483 5486 5487 5489 5490 5491 5492 5492 5492 5492
5301 5302 5305 5308 5313 5318 5324 5329 5334 5340 5346 5352 5359 5365 5372 5379 5385 5392 5398 5405 5411 5417 5423 5429 5435 5441 5446 5451 5456 5460 5464 5467 5470 5473 5475 5477 5479 5480 5481 5482 5482 5482 5482 5481
5299 5300 5302 5306 5310 5315 5320 5325 5330 5336 5342 5348 5355 5361 5368 5374 5381 5387 5394 5400 5406 5412 5418 5424 5430 5435 5440 5445 5449 5453 5456 5460 5462 5465 5467 5468 5470 5471 5472 5472 5472 5472 5472 5471
5297 5299 5301 5304 5308 5312 5317 5322 5328 5334 5340 5345 5351 5358 5364 5371 5377 5383 5389 5395 5401 5407 5413 5419 5424 5429 5434 5438 5442 5446 5449 5452 5454 5457 5458 5460 5461 5462 5463 5463 5463 5463 5462 5461
5297 5298 5301 5303 5307 5311 5315 5320 5326 5331 5337 5343 5349 5355 5361 5367 5374 5380 5386 5392 5397 5403 5408 5413 5418 5423 5428 5432 5435 5439 5442 5445 5447 5449 5450 5451 5452 5453 5454 5454 5454 5453 5452 5451
5297 5299 5301 5304 5307 5311 5315 5320 5325 5330 5335 5341 5347 5353 5359 5365 5371 5377 5382 5388 5393 5399 5404 5409 5414 5418 5422 5426 5429 5432 5435 5437 5439 5441 5442 5443 5444 5445 5445 5445 5444 5443 5442 5440